Location: Nelson
(41.2830°S, 173.2830°E)
Time: 16:26:55
(UTC+13:00)

CZ-4C R/B - Pass Details

Date: 24 January 2019
Orbit: 671 x 1331 km, 63.4° (Epoch: 16 February)

Event Time Altitude Azimuth Distance (km) Brightness Sun altitude
Rises 22:00:38 0° 211° (SSW) 3,699 7.0 -11.2°
Reaches altitude 10° 22:04:29 10° 190° (S) 2,602 5.5 -11.8°
Maximum altitude 22:08:06 16° 152° (SSE) 2,063 4.4 -12.3°
Drops below altitude 10° 22:11:25 10° 114° (ESE) 2,352 4.3 -12.8°
Enters shadow 22:13:13 - 100° (E) 2,775 4.5 -13.0°
